Wetterdaten: Freitag, 06.12.2013
Datum Zeit Temperatur Luftfeuchte Luftdruck Regen Wind Richtung Richtung Taupunkt Windchill Windben
06.12.2013 00:00 3,0 C 64 % 1016,4 hPa 0,0 l/m 25,1 km/h (4 Bft) S-SO 157 -3,1 C -13,4 C 27,5 km/h (4 Bft)
06.12.2013 00:07 2,9 C 66 % 1016,5 hPa 0,0 l/m 22,9 km/h (4 Bft) SO 135 -2,8 C -12,4 C 18,3 km/h (3 Bft)
06.12.2013 00:10 2,9 C 66 % 1016,5 hPa 0,0 l/m 22,9 km/h (4 Bft) SO 135 -2,8 C -12,4 C 18,3 km/h (3 Bft)
06.12.2013 00:18 2,7 C 66 % 1016,5 hPa 0,0 l/m 23,2 km/h (4 Bft) S 180 -3,0 C -12,9 C 59,9 km/h (7 Bft)
06.12.2013 00:20 2,7 C 66 % 1016,5 hPa 0,0 l/m 23,2 km/h (4 Bft) S 180 -3,0 C -12,9 C 29,1 km/h (5 Bft)
06.12.2013 00:29 2,4 C 68 % 1017,2 hPa 0,0 l/m 21,7 km/h (4 Bft) S 180 -2,9 C -12,5 C 15,8 km/h (3 Bft)
06.12.2013 00:30 2,4 C 68 % 1017,2 hPa 0,0 l/m 21,7 km/h (4 Bft) S 180 -2,9 C -12,5 C 15,8 km/h (3 Bft)
06.12.2013 00:40 2,1 C 72 % 1017,2 hPa 0,0 l/m 21,7 km/h (4 Bft) S 180 -2,4 C -12,5 C 15,8 km/h (3 Bft)
06.12.2013 00:42 2,1 C 73 % 1017,2 hPa 0,0 l/m 0,0 km/h (0 Bft) S 180 -2,2 C -1,6 C 0,0 km/h (0 Bft)
06.12.2013 00:44 2,1 C 73 % 1017,2 hPa 0,0 l/m 0,0 km/h (0 Bft) S 180 -2,2 C -1,6 C 0,0 km/h (0 Bft)
06.12.2013 00:45 2,1 C 73 % 1017,2 hPa 0,0 l/m 0,0 km/h (0 Bft) S 180 -2,2 C -1,6 C 0,0 km/h (0 Bft)
06.12.2013 00:50 1,9 C 74 % 1017,2 hPa 0,0 l/m 0,0 km/h (0 Bft) S 180 -2,2 C -1,6 C 0,0 km/h (0 Bft)
06.12.2013 00:55 1,9 C 75 % 1017,2 hPa 0,0 l/m 0,0 km/h (0 Bft) S 180 -2,1 C -1,6 C 0,0 km/h (0 Bft)
06.12.2013 01:00 1,9 C 76 % 1017,2 hPa 0,0 l/m 0,0 km/h (0 Bft) S 180 -1,9 C -1,6 C 0,0 km/h (0 Bft)
06.12.2013 01:05 1,9 C 76 % 1016,8 hPa 0,0 l/m 0,0 km/h (0 Bft) S 180 -1,9 C -1,6 C 0,0 km/h (0 Bft)
06.12.2013 01:10 1,9 C 76 % 1016,8 hPa 0,0 l/m 0,0 km/h (0 Bft) S 180 -1,9 C -1,6 C 0,0 km/h (0 Bft)
06.12.2013 01:15 1,9 C 76 % 1016,8 hPa 0,0 l/m 0,0 km/h (0 Bft) S 180 -1,9 C -1,6 C 0,0 km/h (0 Bft)
06.12.2013 01:20 1,8 C 77 % 1016,8 hPa 0,0 l/m 0,0 km/h (0 Bft) S 180 -1,8 C -1,6 C 0,0 km/h (0 Bft)
06.12.2013 01:25 1,8 C 77 % 1016,3 hPa 0,0 l/m 0,0 km/h (0 Bft) S 180 -1,8 C -1,6 C 0,0 km/h (0 Bft)
06.12.2013 01:30 2,0 C 76 % 1016,3 hPa 0,0 l/m 0,0 km/h (0 Bft) S 180 -1,8 C -1,6 C 0,0 km/h (0 Bft)
06.12.2013 01:35 2,2 C 75 % 1016,3 hPa 0,0 l/m 0,0 km/h (0 Bft) S 180 -1,8 C -1,6 C 0,0 km/h (0 Bft)
06.12.2013 01:40 2,3 C 74 % 1016,3 hPa 0,0 l/m 0,0 km/h (0 Bft) S 180 -1,8 C -1,6 C 0,0 km/h (0 Bft)
06.12.2013 01:45 2,5 C 72 % 1016,0 hPa 0,0 l/m 0,0 km/h (0 Bft) S 180 -2,0 C -1,6 C 0,0 km/h (0 Bft)
06.12.2013 01:50 2,5 C 72 % 1016,0 hPa 0,0 l/m 0,0 km/h (0 Bft) S 180 -2,0 C -1,6 C 0,0 km/h (0 Bft)
06.12.2013 01:55 2,6 C 71 % 1016,0 hPa 0,0 l/m 0,0 km/h (0 Bft) S 180 -2,1 C -1,6 C 0,0 km/h (0 Bft)
06.12.2013 02:00 2,7 C 70 % 1016,0 hPa 0,0 l/m 0,0 km/h (0 Bft) S 180 -2,2 C -1,6 C 0,0 km/h (0 Bft)
06.12.2013 02:05 2,7 C 70 % 1016,1 hPa 0,0 l/m 0,0 km/h (0 Bft) S 180 -2,2 C -1,6 C 0,0 km/h (0 Bft)
06.12.2013 02:10 2,8 C 69 % 1016,1 hPa 0,0 l/m 0,0 km/h (0 Bft) S 180 -2,3 C -1,6 C 0,0 km/h (0 Bft)
06.12.2013 02:15 2,7 C 70 % 1016,1 hPa 0,0 l/m 0,0 km/h (0 Bft) S 180 -2,2 C -1,6 C 0,0 km/h (0 Bft)
06.12.2013 02:20 2,7 C 71 % 1016,1 hPa 0,0 l/m 0,0 km/h (0 Bft) S 180 -2,0 C -1,6 C 0,0 km/h (0 Bft)
06.12.2013 02:25 2,6 C 71 % 1016,4 hPa 0,0 l/m 0,0 km/h (0 Bft) S 180 -2,1 C -1,6 C 0,0 km/h (0 Bft)
06.12.2013 02:30 2,5 C 72 % 1016,4 hPa 0,0 l/m 0,0 km/h (0 Bft) S 180 -2,0 C -1,6 C 0,0 km/h (0 Bft)
06.12.2013 02:35 2,5 C 73 % 1016,4 hPa 0,0 l/m 0,0 km/h (0 Bft) S 180 -1,8 C -1,6 C 0,0 km/h (0 Bft)
06.12.2013 02:40 2,4 C 73 % 1016,4 hPa 0,0 l/m 0,0 km/h (0 Bft) S 180 -1,9 C -1,6 C 0,0 km/h (0 Bft)
06.12.2013 02:45 2,4 C 74 % 1016,4 hPa 0,0 l/m 0,0 km/h (0 Bft) S 180 -1,7 C -1,6 C 0,0 km/h (0 Bft)
06.12.2013 02:50 2,3 C 75 % 1016,4 hPa 0,0 l/m 0,0 km/h (0 Bft) S 180 -1,7 C -1,6 C 0,0 km/h (0 Bft)
06.12.2013 02:55 2,3 C 76 % 1016,4 hPa 0,0 l/m 0,0 km/h (0 Bft) S 180 -1,5 C -1,6 C 0,0 km/h (0 Bft)
06.12.2013 03:00 2,2 C 77 % 1016,4 hPa 0,0 l/m 0,0 km/h (0 Bft) S 180 -1,4 C -1,6 C 0,0 km/h (0 Bft)
06.12.2013 03:05 2,2 C 77 % 1016,4 hPa 0,0 l/m 0,0 km/h (0 Bft) S 180 -1,4 C -1,6 C 0,0 km/h (0 Bft)
06.12.2013 03:10 2,2 C 77 % 1016,4 hPa 0,0 l/m 0,0 km/h (0 Bft) S 180 -1,4 C -1,6 C 0,0 km/h (0 Bft)
06.12.2013 03:15 2,2 C 77 % 1016,4 hPa 0,0 l/m 0,0 km/h (0 Bft) S 180 -1,4 C -1,6 C 0,0 km/h (0 Bft)
06.12.2013 03:20 2,2 C 77 % 1016,4 hPa 0,0 l/m 0,0 km/h (0 Bft) S 180 -1,4 C -1,6 C 0,0 km/h (0 Bft)
06.12.2013 03:25 2,2 C 77 % 1016,2 hPa 0,0 l/m 0,0 km/h (0 Bft) S 180 -1,4 C -1,6 C 0,0 km/h (0 Bft)
06.12.2013 03:30 2,2 C 77 % 1016,2 hPa 0,0 l/m 0,0 km/h (0 Bft) S 180 -1,4 C -1,6 C 0,0 km/h (0 Bft)
06.12.2013 03:35 2,2 C 77 % 1016,2 hPa 0,0 l/m 0,0 km/h (0 Bft) S 180 -1,4 C -1,6 C 0,0 km/h (0 Bft)
06.12.2013 03:40 2,2 C 77 % 1016,2 hPa 0,0 l/m 0,0 km/h (0 Bft) S 180 -1,4 C -1,6 C 0,0 km/h (0 Bft)
06.12.2013 03:45 2,2 C 77 % 1016,3 hPa 0,0 l/m 0,0 km/h (0 Bft) S 180 -1,4 C -1,6 C 0,0 km/h (0 Bft)
06.12.2013 03:50 2,2 C 77 % 1016,3 hPa 0,0 l/m 0,0 km/h (0 Bft) S 180 -1,4 C -1,6 C 0,0 km/h (0 Bft)
06.12.2013 03:55 2,2 C 77 % 1016,3 hPa 0,0 l/m 0,0 km/h (0 Bft) S 180 -1,4 C -1,6 C 0,0 km/h (0 Bft)
06.12.2013 04:00 2,2 C 77 % 1016,3 hPa 0,0 l/m 0,0 km/h (0 Bft) S 180 -1,4 C -1,6 C 0,0 km/h (0 Bft)
06.12.2013 04:05 2,2 C 77 % 1016,4 hPa 0,0 l/m 0,0 km/h (0 Bft) S 180 -1,4 C -1,6 C 0,0 km/h (0 Bft)
06.12.2013 04:10 2,2 C 77 % 1016,4 hPa 0,0 l/m 0,0 km/h (0 Bft) S 180 -1,4 C -1,6 C 0,0 km/h (0 Bft)
06.12.2013 04:15 2,2 C 77 % 1016,4 hPa 0,0 l/m 0,0 km/h (0 Bft) S 180 -1,4 C -1,6 C 0,0 km/h (0 Bft)
06.12.2013 04:20 2,2 C 77 % 1016,4 hPa 0,0 l/m 0,0 km/h (0 Bft) S 180 -1,4 C -1,6 C 0,0 km/h (0 Bft)
06.12.2013 04:25 2,2 C 77 % 1016,5 hPa 0,0 l/m 0,0 km/h (0 Bft) S 180 -1,4 C -1,6 C 0,0 km/h (0 Bft)
06.12.2013 04:30 2,2 C 77 % 1016,5 hPa 0,0 l/m 0,0 km/h (0 Bft) S 180 -1,4 C -1,6 C 0,0 km/h (0 Bft)
06.12.2013 04:35 2,2 C 77 % 1016,5 hPa 0,0 l/m 0,0 km/h (0 Bft) S 180 -1,4 C -1,6 C 0,0 km/h (0 Bft)
06.12.2013 04:40 2,2 C 77 % 1016,5 hPa 0,0 l/m 0,0 km/h (0 Bft) S 180 -1,4 C -1,6 C 0,0 km/h (0 Bft)
06.12.2013 04:45 2,2 C 77 % 1016,4 hPa 0,0 l/m 0,0 km/h (0 Bft) S 180 -1,4 C -1,6 C 0,0 km/h (0 Bft)
06.12.2013 04:50 2,2 C 77 % 1016,4 hPa 0,0 l/m 0,0 km/h (0 Bft) S 180 -1,4 C -1,6 C 0,0 km/h (0 Bft)
06.12.2013 04:55 2,2 C 77 % 1016,4 hPa 0,0 l/m 0,0 km/h (0 Bft) S 180 -1,4 C -1,6 C 0,0 km/h (0 Bft)
06.12.2013 05:00 2,2 C 77 % 1016,4 hPa 0,0 l/m 0,0 km/h (0 Bft) S 180 -1,4 C -1,6 C 0,0 km/h (0 Bft)
06.12.2013 05:05 2,2 C 77 % 1016,2 hPa 0,0 l/m 0,0 km/h (0 Bft) S 180 -1,4 C -1,6 C 0,0 km/h (0 Bft)
06.12.2013 05:10 2,2 C 77 % 1016,2 hPa 0,0 l/m 0,0 km/h (0 Bft) S 180 -1,4 C -1,6 C 0,0 km/h (0 Bft)
06.12.2013 05:15 2,2 C 77 % 1016,2 hPa 0,0 l/m 0,0 km/h (0 Bft) S 180 -1,4 C -1,6 C 0,0 km/h (0 Bft)
06.12.2013 05:20 2,2 C 77 % 1016,2 hPa 0,0 l/m 0,0 km/h (0 Bft) S 180 -1,4 C -1,6 C 0,0 km/h (0 Bft)
06.12.2013 05:25 2,2 C 77 % 1016,5 hPa 0,0 l/m 0,0 km/h (0 Bft) S 180 -1,4 C -1,6 C 0,0 km/h (0 Bft)
06.12.2013 05:30 2,2 C 77 % 1016,5 hPa 0,0 l/m 0,0 km/h (0 Bft) S 180 -1,4 C -1,6 C 0,0 km/h (0 Bft)
06.12.2013 05:35 2,2 C 77 % 1016,5 hPa 0,0 l/m 0,0 km/h (0 Bft) S 180 -1,4 C -1,6 C 0,0 km/h (0 Bft)
06.12.2013 05:40 2,2 C 77 % 1016,5 hPa 0,0 l/m 0,0 km/h (0 Bft) S 180 -1,4 C -1,6 C 0,0 km/h (0 Bft)
06.12.2013 05:45 2,2 C 77 % 1016,6 hPa 0,0 l/m 0,0 km/h (0 Bft) S 180 -1,4 C -1,6 C 0,0 km/h (0 Bft)
06.12.2013 05:50 2,2 C 77 % 1016,6 hPa 0,0 l/m 0,0 km/h (0 Bft) S 180 -1,4 C -1,6 C 0,0 km/h (0 Bft)
06.12.2013 05:55 2,2 C 77 % 1016,6 hPa 0,0 l/m 0,0 km/h (0 Bft) S 180 -1,4 C -1,6 C 0,0 km/h (0 Bft)
06.12.2013 06:00 2,2 C 77 % 1016,6 hPa 0,0 l/m 0,0 km/h (0 Bft) S 180 -1,4 C -1,6 C 0,0 km/h (0 Bft)
06.12.2013 06:05 2,2 C 77 % 1016,8 hPa 0,0 l/m 0,0 km/h (0 Bft) S 180 -1,4 C -1,6 C 0,0 km/h (0 Bft)
06.12.2013 06:10 2,2 C 77 % 1016,8 hPa 0,0 l/m 0,0 km/h (0 Bft) S 180 -1,4 C -1,6 C 0,0 km/h (0 Bft)
06.12.2013 06:15 2,2 C 77 % 1016,8 hPa 0,0 l/m 0,0 km/h (0 Bft) S 180 -1,4 C -1,6 C 0,0 km/h (0 Bft)
06.12.2013 06:20 2,2 C 77 % 1016,8 hPa 0,0 l/m 0,0 km/h (0 Bft) S 180 -1,4 C -1,6 C 0,0 km/h (0 Bft)
06.12.2013 06:25 2,2 C 77 % 1017,4 hPa 0,0 l/m 0,0 km/h (0 Bft) S 180 -1,4 C -1,6 C 0,0 km/h (0 Bft)
06.12.2013 06:30 2,2 C 77 % 1017,4 hPa 0,0 l/m 0,0 km/h (0 Bft) S 180 -1,4 C -1,6 C 0,0 km/h (0 Bft)
06.12.2013 06:35 2,2 C 77 % 1017,4 hPa 24,7 l/m 0,0 km/h (0 Bft) S 180 -1,4 C -1,6 C 0,0 km/h (0 Bft)
06.12.2013 06:40 2,2 C 77 % 1017,4 hPa 0,0 l/m 0,0 km/h (0 Bft) S 180 -1,4 C -1,6 C 0,0 km/h (0 Bft)
06.12.2013 06:43 2,2 C 77 % 1017,5 hPa 0,0 l/m 0,0 km/h (0 Bft) S 180 -1,4 C -1,6 C 0,0 km/h (0 Bft)
06.12.2013 06:45 2,2 C 77 % 1017,5 hPa 0,0 l/m 0,0 km/h (0 Bft) S 180 -1,4 C -1,6 C 0,0 km/h (0 Bft)
06.12.2013 06:50 2,2 C 77 % 1017,5 hPa 0,0 l/m 0,0 km/h (0 Bft) S 180 -1,4 C -1,6 C 0,0 km/h (0 Bft)
06.12.2013 06:55 2,2 C 77 % 1017,5 hPa 0,0 l/m 0,0 km/h (0 Bft) S 180 -1,4 C -1,6 C 0,0 km/h (0 Bft)
06.12.2013 07:00 2,2 C 77 % 1017,5 hPa 0,0 l/m 0,0 km/h (0 Bft) S 180 -1,4 C -1,6 C 0,0 km/h (0 Bft)
06.12.2013 07:05 2,2 C 77 % 1017,6 hPa 0,0 l/m 0,0 km/h (0 Bft) S 180 -1,4 C -1,6 C 0,0 km/h (0 Bft)
06.12.2013 07:10 2,2 C 77 % 1017,6 hPa 0,0 l/m 0,0 km/h (0 Bft) S 180 -1,4 C -1,6 C 0,0 km/h (0 Bft)
06.12.2013 07:15 2,2 C 77 % 1017,6 hPa 0,0 l/m 0,0 km/h (0 Bft) S 180 -1,4 C -1,6 C 0,0 km/h (0 Bft)
06.12.2013 07:20 2,2 C 77 % 1017,6 hPa 0,0 l/m 0,0 km/h (0 Bft) S 180 -1,4 C -1,6 C 0,0 km/h (0 Bft)
06.12.2013 07:25 2,2 C 77 % 1017,8 hPa 0,0 l/m 0,0 km/h (0 Bft) S 180 -1,4 C -1,6 C 0,0 km/h (0 Bft)
06.12.2013 07:30 2,2 C 77 % 1017,8 hPa 0,0 l/m 0,0 km/h (0 Bft) S 180 -1,4 C -1,6 C 0,0 km/h (0 Bft)
06.12.2013 07:35 2,2 C 77 % 1017,8 hPa 0,0 l/m 0,0 km/h (0 Bft) S 180 -1,4 C -1,6 C 0,0 km/h (0 Bft)
06.12.2013 07:40 2,2 C 77 % 1017,8 hPa 0,0 l/m 0,0 km/h (0 Bft) S 180 -1,4 C -1,6 C 0,0 km/h (0 Bft)
06.12.2013 07:45 2,2 C 77 % 1018,3 hPa 0,0 l/m 0,0 km/h (0 Bft) S 180 -1,4 C -1,6 C 0,0 km/h (0 Bft)
06.12.2013 07:50 2,2 C 77 % 1018,3 hPa 0,0 l/m 0,0 km/h (0 Bft) S 180 -1,4 C -1,6 C 0,0 km/h (0 Bft)
06.12.2013 07:55 2,2 C 77 % 1018,3 hPa 0,0 l/m 0,0 km/h (0 Bft) S 180 -1,4 C -1,6 C 0,0 km/h (0 Bft)
06.12.2013 08:00 2,2 C 77 % 1018,3 hPa 0,0 l/m 0,0 km/h (0 Bft) S 180 -1,4 C -1,6 C 0,0 km/h (0 Bft)
06.12.2013 08:05 2,2 C 77 % 1018,8 hPa 0,0 l/m 0,0 km/h (0 Bft) S 180 -1,4 C -1,6 C 0,0 km/h (0 Bft)
06.12.2013 08:10 2,2 C 77 % 1018,8 hPa 0,0 l/m 0,0 km/h (0 Bft) S 180 -1,4 C -1,6 C 0,0 km/h (0 Bft)
06.12.2013 08:15 2,2 C 77 % 1018,8 hPa 0,0 l/m 0,0 km/h (0 Bft) S 180 -1,4 C -1,6 C 0,0 km/h (0 Bft)
06.12.2013 08:20 2,2 C 77 % 1018,8 hPa 0,0 l/m 0,0 km/h (0 Bft) S 180 -1,4 C -1,6 C 0,0 km/h (0 Bft)
06.12.2013 08:25 2,2 C 77 % 1018,9 hPa 0,0 l/m 0,0 km/h (0 Bft) S 180 -1,4 C -1,6 C 0,0 km/h (0 Bft)
06.12.2013 08:30 2,2 C 77 % 1018,9 hPa 0,0 l/m 0,0 km/h (0 Bft) S 180 -1,4 C -1,6 C 0,0 km/h (0 Bft)
06.12.2013 08:35 2,2 C 77 % 1018,9 hPa 0,0 l/m 0,0 km/h (0 Bft) S 180 -1,4 C -1,6 C 0,0 km/h (0 Bft)
06.12.2013 08:40 2,2 C 77 % 1018,9 hPa 0,0 l/m 0,0 km/h (0 Bft) S 180 -1,4 C -1,6 C 0,0 km/h (0 Bft)
06.12.2013 08:45 2,2 C 77 % 1019,0 hPa 0,0 l/m 0,0 km/h (0 Bft) S 180 -1,4 C -1,6 C 0,0 km/h (0 Bft)
06.12.2013 08:50 2,2 C 77 % 1019,0 hPa 0,0 l/m 0,0 km/h (0 Bft) S 180 -1,4 C -1,6 C 0,0 km/h (0 Bft)
06.12.2013 08:55 2,2 C 77 % 1019,0 hPa 0,0 l/m 0,0 km/h (0 Bft) S 180 -1,4 C -1,6 C 0,0 km/h (0 Bft)
06.12.2013 09:00 2,2 C 77 % 1019,0 hPa 0,0 l/m 0,0 km/h (0 Bft) S 180 -1,4 C -1,6 C 0,0 km/h (0 Bft)
06.12.2013 09:05 2,2 C 77 % 1019,1 hPa 0,0 l/m 0,0 km/h (0 Bft) S 180 -1,4 C -1,6 C 0,0 km/h (0 Bft)
06.12.2013 09:10 2,2 C 77 % 1019,1 hPa 0,0 l/m 0,0 km/h (0 Bft) S 180 -1,4 C -1,6 C 0,0 km/h (0 Bft)
06.12.2013 09:15 2,2 C 77 % 1019,1 hPa 0,0 l/m 0,0 km/h (0 Bft) S 180 -1,4 C -1,6 C 0,0 km/h (0 Bft)
06.12.2013 09:20 2,2 C 77 % 1019,1 hPa 0,0 l/m 0,0 km/h (0 Bft) S 180 -1,4 C -1,6 C 0,0 km/h (0 Bft)
06.12.2013 09:25 2,2 C 77 % 1019,1 hPa 0,0 l/m 0,0 km/h (0 Bft) S 180 -1,4 C -1,6 C 0,0 km/h (0 Bft)
06.12.2013 09:30 2,2 C 77 % 1019,1 hPa 0,0 l/m 0,0 km/h (0 Bft) S 180 -1,4 C -1,6 C 0,0 km/h (0 Bft)
06.12.2013 09:35 2,2 C 77 % 1019,1 hPa 0,0 l/m 0,0 km/h (0 Bft) S 180 -1,4 C -1,6 C 0,0 km/h (0 Bft)
06.12.2013 09:40 2,2 C 77 % 1019,1 hPa 0,0 l/m 0,0 km/h (0 Bft) S 180 -1,4 C -1,6 C 0,0 km/h (0 Bft)
06.12.2013 09:45 2,2 C 77 % 1019,1 hPa 0,0 l/m 0,0 km/h (0 Bft) S 180 -1,4 C -1,6 C 0,0 km/h (0 Bft)
06.12.2013 09:50 2,2 C 77 % 1019,1 hPa 0,0 l/m 0,0 km/h (0 Bft) S 180 -1,4 C -1,6 C 0,0 km/h (0 Bft)
06.12.2013 09:55 2,2 C 77 % 1019,1 hPa 0,0 l/m 0,0 km/h (0 Bft) S 180 -1,4 C -1,6 C 0,0 km/h (0 Bft)
06.12.2013 10:00 2,2 C 77 % 1019,1 hPa 0,0 l/m 0,0 km/h (0 Bft) S 180 -1,4 C -1,6 C 0,0 km/h (0 Bft)
06.12.2013 10:05 2,2 C 77 % 1019,4 hPa 0,0 l/m 0,0 km/h (0 Bft) S 180 -1,4 C -1,6 C 0,0 km/h (0 Bft)
06.12.2013 10:10 2,2 C 77 % 1019,4 hPa 0,0 l/m 0,0 km/h (0 Bft) S 180 -1,4 C -1,6 C 0,0 km/h (0 Bft)
06.12.2013 10:15 2,2 C 77 % 1019,4 hPa 0,0 l/m 0,0 km/h (0 Bft) S 180 -1,4 C -1,6 C 0,0 km/h (0 Bft)
06.12.2013 10:20 2,2 C 77 % 1019,4 hPa 0,0 l/m 0,0 km/h (0 Bft) S 180 -1,4 C -1,6 C 0,0 km/h (0 Bft)
06.12.2013 10:25 2,2 C 77 % 1019,4 hPa 0,0 l/m 0,0 km/h (0 Bft) S 180 -1,4 C -1,6 C 0,0 km/h (0 Bft)
06.12.2013 10:30 2,2 C 77 % 1019,4 hPa 0,0 l/m 0,0 km/h (0 Bft) S 180 -1,4 C -1,6 C 0,0 km/h (0 Bft)
06.12.2013 10:35 2,2 C 77 % 1019,4 hPa 0,0 l/m 0,0 km/h (0 Bft) S 180 -1,4 C -1,6 C 0,0 km/h (0 Bft)
06.12.2013 10:40 2,2 C 77 % 1019,4 hPa 0,0 l/m 0,0 km/h (0 Bft) S 180 -1,4 C -1,6 C 0,0 km/h (0 Bft)
06.12.2013 10:45 2,2 C 77 % 1019,2 hPa 0,0 l/m 0,0 km/h (0 Bft) S 180 -1,4 C -1,6 C 0,0 km/h (0 Bft)
06.12.2013 10:50 2,2 C 77 % 1019,2 hPa 0,0 l/m 0,0 km/h (0 Bft) S 180 -1,4 C -1,6 C 0,0 km/h (0 Bft)
06.12.2013 10:55 2,2 C 77 % 1019,2 hPa 0,0 l/m 0,0 km/h (0 Bft) S 180 -1,4 C -1,6 C 0,0 km/h (0 Bft)
06.12.2013 11:00 2,2 C 77 % 1019,2 hPa 0,0 l/m 0,0 km/h (0 Bft) S 180 -1,4 C -1,6 C 0,0 km/h (0 Bft)
06.12.2013 11:05 2,2 C 77 % 1019,1 hPa 0,0 l/m 0,0 km/h (0 Bft) S 180 -1,4 C -1,6 C 0,0 km/h (0 Bft)
06.12.2013 11:10 1,6 C 74 % 1019,1 hPa 0,0 l/m 0,0 km/h (0 Bft) S 180 -2,5 C -1,6 C 0,0 km/h (0 Bft)
06.12.2013 11:15 1,5 C 73 % 1019,1 hPa 0,0 l/m 0,0 km/h (0 Bft) S 180 -2,8 C -1,6 C 0,0 km/h (0 Bft)
06.12.2013 11:20 1,5 C 73 % 1019,1 hPa 0,0 l/m 0,0 km/h (0 Bft) S 180 -2,8 C -1,6 C 0,0 km/h (0 Bft)
06.12.2013 11:25 2,0 C 72 % 1019,1 hPa 0,0 l/m 0,0 km/h (0 Bft) S 180 -2,5 C -1,6 C 0,0 km/h (0 Bft)
06.12.2013 11:30 2,0 C 71 % 1019,1 hPa 0,0 l/m 0,0 km/h (0 Bft) S 180 -2,7 C -1,6 C 0,0 km/h (0 Bft)
06.12.2013 11:35 1,6 C 71 % 1019,1 hPa 0,0 l/m 0,0 km/h (0 Bft) S 180 -3,1 C -1,6 C 0,0 km/h (0 Bft)
06.12.2013 11:40 1,2 C 72 % 1019,1 hPa 0,0 l/m 0,0 km/h (0 Bft) S 180 -3,3 C -1,6 C 0,0 km/h (0 Bft)
06.12.2013 11:45 1,3 C 73 % 1018,9 hPa 0,0 l/m 0,0 km/h (0 Bft) S 180 -3,0 C -1,6 C 0,0 km/h (0 Bft)
06.12.2013 11:50 1,2 C 73 % 1018,9 hPa 0,0 l/m 0,0 km/h (0 Bft) S 180 -3,1 C -1,6 C 0,0 km/h (0 Bft)
06.12.2013 11:55 1,1 C 73 % 1018,9 hPa 0,0 l/m 0,0 km/h (0 Bft) S 180 -3,2 C -1,6 C 0,0 km/h (0 Bft)
06.12.2013 12:00 1,1 C 73 % 1018,9 hPa 0,0 l/m 0,0 km/h (0 Bft) S 180 -3,2 C -1,6 C 0,0 km/h (0 Bft)
06.12.2013 12:05 1,1 C 73 % 1018,9 hPa 0,0 l/m 0,0 km/h (0 Bft) S 180 -3,2 C -1,6 C 0,0 km/h (0 Bft)
06.12.2013 12:10 1,2 C 73 % 1018,9 hPa 0,0 l/m 0,0 km/h (0 Bft) S 180 -3,1 C -1,6 C 0,0 km/h (0 Bft)
06.12.2013 12:15 1,1 C 72 % 1018,9 hPa 0,0 l/m 0,0 km/h (0 Bft) S 180 -3,4 C -1,6 C 0,0 km/h (0 Bft)
06.12.2013 12:20 1,1 C 73 % 1018,9 hPa 0,0 l/m 0,0 km/h (0 Bft) S 180 -3,2 C -1,6 C 0,0 km/h (0 Bft)
06.12.2013 12:25 1,5 C 73 % 1018,7 hPa 0,0 l/m 0,0 km/h (0 Bft) S 180 -2,8 C -1,6 C 0,0 km/h (0 Bft)
06.12.2013 12:30 1,4 C 73 % 1018,7 hPa 0,0 l/m 0,0 km/h (0 Bft) S 180 -2,9 C -1,6 C 0,0 km/h (0 Bft)
06.12.2013 12:35 1,2 C 75 % 1018,7 hPa 0,0 l/m 0,0 km/h (0 Bft) S 180 -2,7 C -1,6 C 0,0 km/h (0 Bft)
06.12.2013 12:38 0,9 C 74 % 1018,7 hPa 0,0 l/m 0,0 km/h (0 Bft) S 180 -3,2 C -1,6 C 0,0 km/h (0 Bft)
06.12.2013 12:40 0,9 C 74 % 1018,9 hPa 0,0 l/m 0,0 km/h (0 Bft) S 180 -3,2 C -1,6 C 0,0 km/h (0 Bft)
06.12.2013 12:45 0,9 C 74 % 1018,9 hPa 0,0 l/m 0,0 km/h (0 Bft) S 180 -3,2 C -1,6 C 0,0 km/h (0 Bft)
06.12.2013 12:50 0,7 C 72 % 1018,9 hPa 0,0 l/m 0,0 km/h (0 Bft) S 180 -3,8 C -1,6 C 0,0 km/h (0 Bft)
06.12.2013 12:55 0,7 C 71 % 1018,9 hPa 0,0 l/m 0,0 km/h (0 Bft) S 180 -3,9 C -1,6 C 0,0 km/h (0 Bft)
06.12.2013 13:00 0,8 C 71 % 1018,9 hPa 0,0 l/m 0,0 km/h (0 Bft) S 180 -3,8 C -1,6 C 0,0 km/h (0 Bft)
06.12.2013 13:05 1,0 C 71 % 1018,7 hPa 0,0 l/m 0,0 km/h (0 Bft) S 180 -3,7 C -1,6 C 0,0 km/h (0 Bft)
06.12.2013 13:10 1,2 C 72 % 1018,7 hPa 0,0 l/m 0,0 km/h (0 Bft) S 180 -3,3 C -1,6 C 0,0 km/h (0 Bft)
06.12.2013 13:15 1,3 C 72 % 1018,7 hPa 0,0 l/m 0,0 km/h (0 Bft) S 180 -3,2 C -1,6 C 0,0 km/h (0 Bft)
06.12.2013 13:20 1,2 C 72 % 1018,7 hPa 0,0 l/m 0,0 km/h (0 Bft) S 180 -3,3 C -1,6 C 0,0 km/h (0 Bft)
06.12.2013 13:25 1,0 C 72 % 1018,6 hPa 0,0 l/m 0,0 km/h (0 Bft) S 180 -3,5 C -1,6 C 0,0 km/h (0 Bft)
06.12.2013 13:30 1,0 C 71 % 1018,6 hPa 0,0 l/m 0,0 km/h (0 Bft) S 180 -3,7 C -1,6 C 0,0 km/h (0 Bft)
06.12.2013 13:35 1,1 C 71 % 1018,6 hPa 0,0 l/m 0,0 km/h (0 Bft) S 180 -3,6 C -1,6 C 0,0 km/h (0 Bft)
06.12.2013 13:40 1,2 C 67 % 1018,6 hPa 0,0 l/m 0,0 km/h (0 Bft) S 180 -4,2 C -1,6 C 0,0 km/h (0 Bft)
06.12.2013 13:45 1,3 C 67 % 1018,4 hPa 0,0 l/m 0,0 km/h (0 Bft) S 180 -4,1 C -1,6 C 0,0 km/h (0 Bft)
06.12.2013 13:50 1,8 C 65 % 1018,4 hPa 0,0 l/m 0,0 km/h (0 Bft) S 180 -4,1 C -1,6 C 0,0 km/h (0 Bft)
06.12.2013 13:55 1,8 C 63 % 1018,4 hPa 0,0 l/m 0,0 km/h (0 Bft) S 180 -4,5 C -1,6 C 0,0 km/h (0 Bft)
06.12.2013 14:00 1,7 C 62 % 1018,4 hPa 0,0 l/m 0,0 km/h (0 Bft) S 180 -4,8 C -1,6 C 0,0 km/h (0 Bft)
06.12.2013 14:05 1,7 C 62 % 1018,3 hPa 0,0 l/m 0,0 km/h (0 Bft) S 180 -4,8 C -1,6 C 0,0 km/h (0 Bft)
06.12.2013 14:10 1,8 C 61 % 1018,3 hPa 0,0 l/m 0,0 km/h (0 Bft) S 180 -4,9 C -1,6 C 0,0 km/h (0 Bft)
06.12.2013 14:15 1,6 C 63 % 1018,3 hPa 0,0 l/m 0,0 km/h (0 Bft) S 180 -4,7 C -1,6 C 0,0 km/h (0 Bft)
06.12.2013 14:20 1,4 C 63 % 1018,3 hPa 0,0 l/m 0,0 km/h (0 Bft) S 180 -4,9 C -1,6 C 0,0 km/h (0 Bft)
06.12.2013 14:25 1,3 C 65 % 1018,6 hPa 0,0 l/m 0,0 km/h (0 Bft) S 180 -4,5 C -1,6 C 0,0 km/h (0 Bft)
06.12.2013 14:30 1,2 C 65 % 1018,6 hPa 0,0 l/m 0,0 km/h (0 Bft) S 180 -4,6 C -1,6 C 0,0 km/h (0 Bft)
06.12.2013 14:35 1,3 C 65 % 1018,6 hPa 0,0 l/m 0,0 km/h (0 Bft) S 180 -4,5 C -1,6 C 0,0 km/h (0 Bft)
06.12.2013 14:40 1,2 C 67 % 1018,6 hPa 0,0 l/m 0,0 km/h (0 Bft) S 180 -4,2 C -1,6 C 0,0 km/h (0 Bft)
06.12.2013 14:45 1,2 C 67 % 1018,5 hPa 0,0 l/m 0,0 km/h (0 Bft) S 180 -4,2 C -1,6 C 0,0 km/h (0 Bft)
06.12.2013 14:50 1,1 C 67 % 1018,5 hPa 0,0 l/m 0,0 km/h (0 Bft) S 180 -4,3 C -1,6 C 0,0 km/h (0 Bft)
06.12.2013 14:55 1,1 C 67 % 1018,5 hPa 0,0 l/m 0,0 km/h (0 Bft) S 180 -4,3 C -1,6 C 0,0 km/h (0 Bft)
06.12.2013 15:00 1,1 C 67 % 1018,5 hPa 0,0 l/m 0,0 km/h (0 Bft) S 180 -4,3 C -1,6 C 0,0 km/h (0 Bft)
06.12.2013 15:05 1,2 C 66 % 1018,4 hPa 0,0 l/m 0,0 km/h (0 Bft) S 180 -4,4 C -1,6 C 0,0 km/h (0 Bft)
06.12.2013 15:10 1,2 C 66 % 1018,4 hPa 0,0 l/m 0,0 km/h (0 Bft) S 180 -4,4 C -1,6 C 0,0 km/h (0 Bft)
06.12.2013 15:15 1,3 C 66 % 1018,4 hPa 0,0 l/m 0,0 km/h (0 Bft) S 180 -4,3 C -1,6 C 0,0 km/h (0 Bft)
06.12.2013 15:20 1,1 C 68 % 1018,4 hPa 0,0 l/m 0,0 km/h (0 Bft) S 180 -4,1 C -1,6 C 0,0 km/h (0 Bft)
06.12.2013 15:25 1,0 C 69 % 1018,6 hPa 0,0 l/m 0,0 km/h (0 Bft) S 180 -4,0 C -1,6 C 0,0 km/h (0 Bft)
06.12.2013 15:30 1,0 C 71 % 1018,6 hPa 0,0 l/m 0,0 km/h (0 Bft) S 180 -3,7 C -1,6 C 0,0 km/h (0 Bft)
06.12.2013 15:35 1,0 C 72 % 1018,6 hPa 0,0 l/m 0,0 km/h (0 Bft) S 180 -3,5 C -1,6 C 0,0 km/h (0 Bft)
06.12.2013 15:40 1,0 C 70 % 1018,6 hPa 0,0 l/m 0,0 km/h (0 Bft) S 180 -3,8 C -1,6 C 0,0 km/h (0 Bft)
06.12.2013 15:45 1,0 C 69 % 1018,9 hPa 0,0 l/m 0,0 km/h (0 Bft) S 180 -4,0 C -1,6 C 0,0 km/h (0 Bft)
06.12.2013 15:50 1,0 C 69 % 1018,9 hPa 0,0 l/m 0,0 km/h (0 Bft) S 180 -4,0 C -1,6 C 0,0 km/h (0 Bft)
06.12.2013 15:55 0,9 C 69 % 1018,9 hPa 0,0 l/m 0,0 km/h (0 Bft) S 180 -4,1 C -1,6 C 0,0 km/h (0 Bft)
06.12.2013 16:00 0,9 C 69 % 1018,9 hPa 0,0 l/m 0,0 km/h (0 Bft) S 180 -4,1 C -1,6 C 0,0 km/h (0 Bft)
06.12.2013 16:05 0,8 C 69 % 1019,0 hPa 0,0 l/m 0,0 km/h (0 Bft) S 180 -4,2 C -1,6 C 0,0 km/h (0 Bft)
06.12.2013 16:10 0,9 C 68 % 1019,0 hPa 0,0 l/m 0,0 km/h (0 Bft) S 180 -4,3 C -1,6 C 0,0 km/h (0 Bft)
06.12.2013 16:15 0,8 C 67 % 1019,0 hPa 0,0 l/m 0,0 km/h (0 Bft) S 180 -4,6 C -1,6 C 0,0 km/h (0 Bft)
06.12.2013 16:20 0,8 C 65 % 1019,0 hPa 0,0 l/m 0,0 km/h (0 Bft) S 180 -5,0 C -1,6 C 0,0 km/h (0 Bft)
06.12.2013 16:25 0,7 C 65 % 1019,2 hPa 0,0 l/m 0,0 km/h (0 Bft) S 180 -5,1 C -1,6 C 0,0 km/h (0 Bft)
06.12.2013 16:30 0,6 C 65 % 1019,2 hPa 0,0 l/m 0,0 km/h (0 Bft) S 180 -5,2 C -1,6 C 0,0 km/h (0 Bft)
06.12.2013 16:35 0,6 C 65 % 1019,2 hPa 0,0 l/m 0,0 km/h (0 Bft) S 180 -5,2 C -1,6 C 0,0 km/h (0 Bft)
06.12.2013 16:40 0,5 C 65 % 1019,2 hPa 0,0 l/m 0,0 km/h (0 Bft) S 180 -5,3 C -1,6 C 0,0 km/h (0 Bft)
06.12.2013 16:45 0,5 C 65 % 1019,6 hPa 0,0 l/m 0,0 km/h (0 Bft) S 180 -5,3 C -1,6 C 0,0 km/h (0 Bft)
06.12.2013 16:50 0,4 C 65 % 1019,6 hPa 0,0 l/m 0,0 km/h (0 Bft) S 180 -5,4 C -1,6 C 0,0 km/h (0 Bft)
06.12.2013 16:55 0,3 C 66 % 1019,6 hPa 0,0 l/m 0,0 km/h (0 Bft) S 180 -5,3 C -1,6 C 0,0 km/h (0 Bft)
06.12.2013 17:00 0,3 C 66 % 1019,6 hPa 0,0 l/m 0,0 km/h (0 Bft) S 180 -5,3 C -1,6 C 0,0 km/h (0 Bft)
06.12.2013 17:05 0,2 C 67 % 1019,6 hPa 0,0 l/m 0,0 km/h (0 Bft) S 180 -5,2 C -1,6 C 0,0 km/h (0 Bft)
06.12.2013 17:10 0,3 C 68 % 1019,6 hPa 0,0 l/m 0,0 km/h (0 Bft) S 180 -4,9 C -1,6 C 0,0 km/h (0 Bft)
06.12.2013 17:15 0,3 C 69 % 1019,6 hPa 0,0 l/m 0,0 km/h (0 Bft) S 180 -4,7 C -1,6 C 0,0 km/h (0 Bft)
06.12.2013 17:20 0,1 C 72 % 1019,6 hPa 0,0 l/m 0,0 km/h (0 Bft) S 180 -4,3 C -1,6 C 0,0 km/h (0 Bft)
06.12.2013 17:25 0,1 C 71 % 1020,4 hPa 0,0 l/m 0,0 km/h (0 Bft) S 180 -4,5 C -1,6 C 0,0 km/h (0 Bft)
06.12.2013 17:30 -0,1 C 69 % 1020,4 hPa 0,0 l/m 0,0 km/h (0 Bft) S 180 -5,1 C -1,6 C 0,0 km/h (0 Bft)
06.12.2013 17:35 -0,3 C 67 % 1020,4 hPa 0,0 l/m 0,0 km/h (0 Bft) S 180 -5,7 C -1,6 C 0,0 km/h (0 Bft)
06.12.2013 17:39 -0,5 C 66 % 1020,4 hPa 0,0 l/m 0,0 km/h (0 Bft) S 180 -6,1 C -1,6 C 0,0 km/h (0 Bft)
06.12.2013 17:40 -0,6 C 64 % 1021,1 hPa 0,0 l/m 0,0 km/h (0 Bft) S 180 -6,5 C -1,6 C 0,0 km/h (0 Bft)
06.12.2013 17:45 -0,6 C 64 % 1021,1 hPa 0,0 l/m 0,0 km/h (0 Bft) S 180 -6,5 C -1,6 C 0,0 km/h (0 Bft)
06.12.2013 17:50 -0,7 C 63 % 1021,1 hPa 0,0 l/m 0,0 km/h (0 Bft) S 180 -6,8 C -1,6 C 0,0 km/h (0 Bft)
06.12.2013 17:55 -0,8 C 62 % 1021,1 hPa 0,0 l/m 0,0 km/h (0 Bft) S 180 -7,1 C -1,6 C 0,0 km/h (0 Bft)
06.12.2013 18:00 -0,9 C 61 % 1021,1 hPa 0,0 l/m 0,0 km/h (0 Bft) S 180 -7,5 C -1,6 C 0,0 km/h (0 Bft)
06.12.2013 18:05 -0,9 C 61 % 1021,6 hPa 0,0 l/m 0,0 km/h (0 Bft) S 180 -7,5 C -1,6 C 0,0 km/h (0 Bft)
06.12.2013 18:10 -1,0 C 62 % 1021,6 hPa 0,0 l/m 0,0 km/h (0 Bft) S 180 -7,3 C -1,6 C 0,0 km/h (0 Bft)
06.12.2013 18:15 -1,1 C 63 % 1021,6 hPa 0,0 l/m 0,0 km/h (0 Bft) S 180 -7,2 C -1,6 C 0,0 km/h (0 Bft)
06.12.2013 18:20 -1,2 C 62 % 1021,6 hPa 0,0 l/m 0,0 km/h (0 Bft) S 180 -7,5 C -1,6 C 0,0 km/h (0 Bft)
06.12.2013 18:25 -1,1 C 61 % 1021,8 hPa 0,0 l/m 0,0 km/h (0 Bft) S 180 -7,6 C -1,6 C 0,0 km/h (0 Bft)
06.12.2013 18:30 -1,2 C 62 % 1021,8 hPa 0,0 l/m 0,0 km/h (0 Bft) S 180 -7,5 C -1,6 C 0,0 km/h (0 Bft)
06.12.2013 18:35 -1,3 C 62 % 1021,8 hPa 0,0 l/m 0,0 km/h (0 Bft) S 180 -7,6 C -1,6 C 0,0 km/h (0 Bft)
06.12.2013 18:40 -1,3 C 61 % 1021,8 hPa 0,0 l/m 0,0 km/h (0 Bft) S 180 -7,8 C -1,6 C 0,0 km/h (0 Bft)
06.12.2013 18:45 -1,2 C 61 % 1021,8 hPa 0,0 l/m 0,0 km/h (0 Bft) S 180 -7,7 C -1,6 C 0,0 km/h (0 Bft)
06.12.2013 18:50 -1,3 C 60 % 1021,8 hPa 0,0 l/m 0,0 km/h (0 Bft) S 180 -8,0 C -1,6 C 0,0 km/h (0 Bft)
06.12.2013 18:55 -1,5 C 61 % 1021,8 hPa 0,0 l/m 0,0 km/h (0 Bft) S 180 -8,0 C -1,6 C 0,0 km/h (0 Bft)
06.12.2013 19:00 -1,6 C 62 % 1021,8 hPa 0,0 l/m 0,0 km/h (0 Bft) S 180 -7,9 C -1,6 C 0,0 km/h (0 Bft)
06.12.2013 19:05 -1,5 C 62 % 1021,7 hPa 0,0 l/m 0,0 km/h (0 Bft) S 180 -7,8 C -1,6 C 0,0 km/h (0 Bft)
06.12.2013 19:10 -1,4 C 62 % 1021,7 hPa 0,0 l/m 0,0 km/h (0 Bft) S 180 -7,7 C -1,6 C 0,0 km/h (0 Bft)
06.12.2013 19:15 -1,4 C 62 % 1021,7 hPa 0,0 l/m 0,0 km/h (0 Bft) S 180 -7,7 C -1,6 C 0,0 km/h (0 Bft)
06.12.2013 19:20 -1,3 C 64 % 1021,7 hPa 0,0 l/m 0,0 km/h (0 Bft) S 180 -7,2 C -1,6 C 0,0 km/h (0 Bft)
06.12.2013 19:25 -1,3 C 66 % 1021,4 hPa 0,0 l/m 0,0 km/h (0 Bft) S 180 -6,8 C -1,6 C 0,0 km/h (0 Bft)
06.12.2013 19:30 -1,5 C 66 % 1021,4 hPa 0,0 l/m 0,0 km/h (0 Bft) S 180 -7,0 C -1,6 C 0,0 km/h (0 Bft)
06.12.2013 19:35 -1,7 C 66 % 1021,4 hPa 0,0 l/m 0,0 km/h (0 Bft) S 180 -7,2 C -1,6 C 0,0 km/h (0 Bft)
06.12.2013 19:40 -1,8 C 67 % 1021,4 hPa 0,0 l/m 0,0 km/h (0 Bft) S 180 -7,1 C -1,6 C 0,0 km/h (0 Bft)
06.12.2013 19:45 -1,7 C 68 % 1020,9 hPa 0,0 l/m 0,0 km/h (0 Bft) S 180 -6,8 C -1,6 C 0,0 km/h (0 Bft)
06.12.2013 19:50 -1,5 C 68 % 1020,9 hPa 0,0 l/m 0,0 km/h (0 Bft) S 180 -6,6 C -1,6 C 0,0 km/h (0 Bft)
06.12.2013 19:55 -1,8 C 70 % 1020,9 hPa 0,0 l/m 0,0 km/h (0 Bft) S 180 -6,5 C -1,6 C 0,0 km/h (0 Bft)
06.12.2013 20:00 -2,1 C 73 % 1020,9 hPa 0,0 l/m 0,0 km/h (0 Bft) S 180 -6,3 C -1,6 C 0,0 km/h (0 Bft)
06.12.2013 20:05 -2,0 C 74 % 1021,4 hPa 0,0 l/m 0,0 km/h (0 Bft) S 180 -6,0 C -1,6 C 0,0 km/h (0 Bft)
06.12.2013 20:10 -2,1 C 73 % 1021,4 hPa 0,0 l/m 0,0 km/h (0 Bft) S 180 -6,3 C -1,6 C 0,0 km/h (0 Bft)
06.12.2013 20:15 -2,1 C 74 % 1021,4 hPa 0,0 l/m 0,0 km/h (0 Bft) S 180 -6,1 C -1,6 C 0,0 km/h (0 Bft)
06.12.2013 20:20 -2,0 C 75 % 1021,4 hPa 0,0 l/m 0,0 km/h (0 Bft) S 180 -5,8 C -1,6 C 0,0 km/h (0 Bft)
06.12.2013 20:25 -1,9 C 75 % 1021,2 hPa 0,0 l/m 0,0 km/h (0 Bft) S 180 -5,7 C -1,6 C 0,0 km/h (0 Bft)
06.12.2013 20:30 -1,9 C 75 % 1021,2 hPa 0,0 l/m 0,0 km/h (0 Bft) S 180 -5,7 C -1,6 C 0,0 km/h (0 Bft)
06.12.2013 20:35 -1,9 C 75 % 1021,2 hPa 0,0 l/m 0,0 km/h (0 Bft) S 180 -5,7 C -1,6 C 0,0 km/h (0 Bft)
06.12.2013 20:40 -1,8 C 74 % 1021,2 hPa 0,0 l/m 0,0 km/h (0 Bft) S 180 -5,8 C -1,6 C 0,0 km/h (0 Bft)
06.12.2013 20:45 -1,9 C 74 % 1021,9 hPa 0,0 l/m 0,0 km/h (0 Bft) S 180 -5,9 C -1,6 C 0,0 km/h (0 Bft)
06.12.2013 20:50 -1,9 C 75 % 1021,9 hPa 0,0 l/m 0,0 km/h (0 Bft) S 180 -5,7 C -1,6 C 0,0 km/h (0 Bft)
06.12.2013 20:55 -1,9 C 75 % 1021,9 hPa 0,0 l/m 0,0 km/h (0 Bft) S 180 -5,7 C -1,6 C 0,0 km/h (0 Bft)
06.12.2013 21:00 -1,5 C 72 % 1021,9 hPa 0,0 l/m 0,0 km/h (0 Bft) S 180 -5,9 C -1,6 C 0,0 km/h (0 Bft)
06.12.2013 21:05 -1,4 C 70 % 1022,1 hPa 0,0 l/m 0,0 km/h (0 Bft) S 180 -6,1 C -1,6 C 0,0 km/h (0 Bft)
06.12.2013 21:10 -1,3 C 69 % 1022,1 hPa 0,0 l/m 0,0 km/h (0 Bft) S 180 -6,2 C -1,6 C 0,0 km/h (0 Bft)
06.12.2013 21:15 -1,3 C 69 % 1022,1 hPa 0,0 l/m 0,0 km/h (0 Bft) S 180 -6,2 C -1,6 C 0,0 km/h (0 Bft)
06.12.2013 21:20 -1,4 C 70 % 1022,1 hPa 0,0 l/m 0,0 km/h (0 Bft) S 180 -6,1 C -1,6 C 0,0 km/h (0 Bft)
06.12.2013 21:25 -1,4 C 69 % 1022,3 hPa 0,0 l/m 0,0 km/h (0 Bft) S 180 -6,3 C -1,6 C 0,0 km/h (0 Bft)
06.12.2013 21:30 -1,3 C 69 % 1022,3 hPa 0,0 l/m 0,0 km/h (0 Bft) S 180 -6,2 C -1,6 C 0,0 km/h (0 Bft)
06.12.2013 21:35 -1,4 C 69 % 1022,3 hPa 0,0 l/m 0,0 km/h (0 Bft) S 180 -6,3 C -1,6 C 0,0 km/h (0 Bft)
06.12.2013 21:40 -1,3 C 69 % 1022,3 hPa 0,0 l/m 0,0 km/h (0 Bft) S 180 -6,2 C -1,6 C 0,0 km/h (0 Bft)
06.12.2013 21:45 -1,3 C 69 % 1022,3 hPa 0,0 l/m 0,0 km/h (0 Bft) S 180 -6,2 C -1,6 C 0,0 km/h (0 Bft)
06.12.2013 21:50 -1,4 C 73 % 1022,3 hPa 0,0 l/m 0,0 km/h (0 Bft) S 180 -5,6 C -1,6 C 0,0 km/h (0 Bft)
06.12.2013 21:55 -2,0 C 79 % 1022,3 hPa 0,0 l/m 0,0 km/h (0 Bft) S 180 -5,1 C -1,6 C 0,0 km/h (0 Bft)
06.12.2013 22:00 -2,0 C 82 % 1022,3 hPa 0,0 l/m 0,0 km/h (0 Bft) S 180 -4,7 C -1,6 C 0,0 km/h (0 Bft)
06.12.2013 22:05 -2,0 C 82 % 1022,8 hPa 0,0 l/m 0,0 km/h (0 Bft) S 180 -4,7 C -1,6 C 0,0 km/h (0 Bft)
06.12.2013 22:10 -2,0 C 80 % 1022,8 hPa 0,0 l/m 0,0 km/h (0 Bft) S 180 -5,0 C -1,6 C 0,0 km/h (0 Bft)
06.12.2013 22:15 -2,0 C 79 % 1022,8 hPa 0,0 l/m 0,0 km/h (0 Bft) S 180 -5,1 C -1,6 C 0,0 km/h (0 Bft)
06.12.2013 22:20 -2,0 C 78 % 1022,8 hPa 0,0 l/m 0,0 km/h (0 Bft) S 180 -5,3 C -1,6 C 0,0 km/h (0 Bft)
06.12.2013 22:25 -1,7 C 76 % 1022,6 hPa 0,0 l/m 0,0 km/h (0 Bft) S 180 -5,4 C -1,6 C 0,0 km/h (0 Bft)
06.12.2013 22:30 -1,6 C 74 % 1022,6 hPa 0,0 l/m 0,0 km/h (0 Bft) S 180 -5,6 C -1,6 C 0,0 km/h (0 Bft)
06.12.2013 22:35 -1,6 C 74 % 1022,6 hPa 0,0 l/m 0,0 km/h (0 Bft) S 180 -5,6 C -1,6 C 0,0 km/h (0 Bft)
06.12.2013 22:39 -1,5 C 73 % 1022,6 hPa 0,0 l/m 0,0 km/h (0 Bft) S 180 -5,7 C -1,6 C 0,0 km/h (0 Bft)
06.12.2013 22:40 -1,5 C 73 % 1022,6 hPa 0,0 l/m 0,0 km/h (0 Bft) S 180 -5,7 C -1,6 C 0,0 km/h (0 Bft)
06.12.2013 22:45 -1,4 C 72 % 1022,7 hPa 0,0 l/m 0,0 km/h (0 Bft) S 180 -5,8 C -1,6 C 0,0 km/h (0 Bft)
06.12.2013 22:50 -1,3 C 70 % 1022,7 hPa 0,0 l/m 0,0 km/h (0 Bft) S 180 -6,0 C -1,6 C 0,0 km/h (0 Bft)
06.12.2013 22:55 -1,2 C 70 % 1022,7 hPa 0,0 l/m 0,0 km/h (0 Bft) S 180 -6,0 C -1,6 C 0,0 km/h (0 Bft)
06.12.2013 23:00 -1,4 C 72 % 1022,7 hPa 0,0 l/m 0,0 km/h (0 Bft) S 180 -5,8 C -1,6 C 0,0 km/h (0 Bft)
06.12.2013 23:05 -1,5 C 74 % 1022,8 hPa 0,0 l/m 0,0 km/h (0 Bft) S 180 -5,5 C -1,6 C 0,0 km/h (0 Bft)
06.12.2013 23:10 -1,5 C 73 % 1022,8 hPa 0,0 l/m 0,0 km/h (0 Bft) S 180 -5,7 C -1,6 C 0,0 km/h (0 Bft)
06.12.2013 23:15 -1,4 C 73 % 1022,8 hPa 0,0 l/m 0,0 km/h (0 Bft) S 180 -5,6 C -1,6 C 0,0 km/h (0 Bft)
06.12.2013 23:20 -1,3 C 71 % 1022,8 hPa 0,0 l/m 0,0 km/h (0 Bft) S 180 -5,9 C -1,6 C 0,0 km/h (0 Bft)
06.12.2013 23:25 -1,5 C 73 % 1022,9 hPa 0,0 l/m 0,0 km/h (0 Bft) S 180 -5,7 C -1,6 C 0,0 km/h (0 Bft)
06.12.2013 23:30 -1,5 C 75 % 1022,9 hPa 0,0 l/m 0,0 km/h (0 Bft) S 180 -5,3 C -1,6 C 0,0 km/h (0 Bft)
06.12.2013 23:35 -1,7 C 76 % 1022,9 hPa 0,0 l/m 0,0 km/h (0 Bft) S 180 -5,4 C -1,6 C 0,0 km/h (0 Bft)
06.12.2013 23:40 -1,9 C 78 % 1022,9 hPa 0,0 l/m 0,0 km/h (0 Bft) S 180 -5,2 C -1,6 C 0,0 km/h (0 Bft)
06.12.2013 23:45 -2,0 C 78 % 1023,1 hPa 0,0 l/m 0,0 km/h (0 Bft) S 180 -5,3 C -1,6 C 0,0 km/h (0 Bft)
06.12.2013 23:50 -1,9 C 79 % 1023,1 hPa 0,0 l/m 0,0 km/h (0 Bft) S 180 -5,0 C -1,6 C 0,0 km/h (0 Bft)
06.12.2013 23:55 -1,9 C 79 % 1023,1 hPa 0,0 l/m 0,0 km/h (0 Bft) S 180 -5,0 C -1,6 C 0,0 km/h (0 Bft)
_ Min-Zeit 20:15 18:50 02:00 - 23:55 - - 18:50 00:00 23:55
Minimum _ -2,1 C 60 % 1016,0 hPa - 0,0 km/h (0 Bft) - - -8,0 C -13,4 C 0,0 km/h (0 Bft)
_ Max-Zeit 00:00 22:05 23:55 06:35 00:00 - - 11:05 23:55 00:18
Maximum _ 3,0 C 82 % 1023,1 hPa 24,7 l/m 25,1 km/h
S-SO (4 Bft)
- - -1,4 C -1,6 C 59,9 km/h
S (7 Bft)
Durchschnitt _ 0,9 C 72 % 1019,0 hPa #24,7 l/m 0,7 km/h (0 Bft) S - -3,5 C -1,9 C 0,8 km/h (0 Bft)